Location: Chuathbaluk
(61.5726°N, 159.2454°W)
Time: 05:05:12
(UTC+00:00)

Transit 2A - Pass Details

Date: 05 December 2020
Orbit: 599 x 960 km, 66.7° (Epoch: 26 January)

Event Time Altitude Azimuth Distance (km) Brightness Sun altitude
Rises 07:13:29 0° 282° (WNW) 3,511 10.3 -38.8°
Reaches altitude 10° 07:16:11 10° 288° (WNW) 2,521 9.3 -39.1°
Enters shadow 07:18:49 26° 300° (WNW) 1,616 8.1 -39.4°
Maximum altitude 07:21:51 51° 4° (N) 1,019 - -39.7°
Drops below altitude 10° 07:26:58 10° 80° (E) 2,280 - -40.2°
Sets 07:29:18 0° 86° (E) 3,146 - -40.5°
